User: anonymous   Login
Location: La B�doule
(43.2468°N, 5.5934°E)
Time: 15:56:53
(UTC+00:00)
Language:

Shenzhou-11 Module - Orbit

View from above orbital plane
View from above orbital plane
View from above satellite
View from above satellite

Ground track
Ground track

The orbit data is extracted from the following two-line orbital elements,

1 41868U 16061G   20224.75487237 +.00082840 +11451-4 +12131-3 0  9993
2 41868 042.7858 148.9559 0014844 204.2044 246.0181 16.04433648214931
Epoch (UTC): 11 August 2020 18:07:00
Eccentricity: 0.0014844
inclination: 42.7858°
perigee height: 252 km
apogee height: 272 km
right ascension of ascending node: 148.9559°
argument of perigee: 204.2044°
revolutions per day: 16.04433648
mean anomaly at epoch: 246.0181°
orbit number at epoch: 21493

The dashed part of the orbit path shows where the satellite is in the earth's shadow,  

DLR